Regional Weather Roundup
Issued by NWS

Home | Current Version | Previous Version | Graphics & Text | Print | Product List | Glossary On
Versions: 1 2 3 4 5 6 7 8 9 10 11 12 13 14 15 16 17 18 19 20 21 22 23 24 25 26 27 28 29 30 31 32 33 34 35 36 37 38 39 40 41 42 43 44 45 46 47 48 49 50
000
ASUS43 KDTX 211310
RWRMI
MICHIGAN HOURLY REGIONAL WEATHER ROUNDUP
NATIONAL WEATHER SERVICE DETROIT/PONTIAC MI
800 AM EST WED FEB 21 2018

NOTE: "FAIR" INDICATES FEW OR NO CLOUDS BELOW 12,000 FEET WITH NO
SIGNIFICANT WEATHER AND/OR OBSTRUCTION TO VISIBILITY.

MIZ047>049-052>055-059>063-066>070-074>076-081>083-211400-
SOUTHEAST LOWER MICHIGAN

CITY           SKY/WX    TMP DP  RH WIND       PRES   REMARKS
ADRIAN         LGT RAIN  37  36  96 N10       30.30R WCI  30
ALMA           CLOUDY    33  32  96 NW8       30.34R WCI  26
ANN ARBOR      LGT RAIN  37  32  82 NW15G22   30.28R WCI  28
BAD AXE        FLURRIES  33  33  99 N17       30.28R WCI  22
CARO           CLOUDY    34  33  94 NW10      30.30R WCI  26
DETROIT CITY   LGT RAIN  40  37  89 N9        30.25R WCI  34
DETROIT        LGT RAIN  40  37  89 NW14      30.28R WCI  32
FLINT          LGT RAIN  35  33  92 NW13      30.31R WCI  26
GROSSE ILE     LGT RAIN  40  38  93 NW10      30.26R WCI  33
HILLSDALE      MIX PCPN  34  32  93 NW12G20   30.29R WCI  25
HOWELL         RAIN      35  34  96 NW13G18   30.30R WCI  26

CITY           SKY/WX    TMP DP  RH WIND       PRES   REMARKS
JACKSON        MIX PCPN  34  32  92 NW12      30.31R WCI  25
LAMBERTVILLE   LGT RAIN  40  37  92 NW10      30.28R WCI  33
LANSING        CLOUDY    33  31  92 NW10      30.33R WCI  25
LAPEER         LGT RAIN  36  35  97 N9        30.28R WCI  29
MASON          LGT RAIN  35  31  87 NW7G18    30.31R WCI  29
MONROE         LGT RAIN  40  37  91 NW9       30.27R WCI  34
MT. CLEMENS    LGT RAIN  39  39 100 NW10      30.24R WCI  33
PONTIAC        LGT RAIN  36  35  96 NW12      30.25R WCI  28
PORT HOPE        N/A     33  28  81 N10       30.28R WCI  25
PORT HURON     LGT RAIN  36  34  93 NE5       30.25R WCI  32
TRI CITIES     CLOUDY    33  29  85 N12       30.32R WCI  24
MIDLAND        CLOUDY    32  30  92 NW7       30.32R WCI  26
TROY           LGT RAIN  39  37  91 NW9       30.28R WCI  33
SAGINAW HB     CLOUDY    34  32  93 NW9       30.31R WCI  26
$$
MIZ043>046-050>051-056>058-064>065-071>073-077>080-211400-
SOUTHWEST LOWER MICHIGAN

CITY           SKY/WX    TMP DP  RH WIND       PRES   REMARKS
BATTLE CREEK   CLOUDY    32  30  92 NW10      30.35R WCI  24
BENTON HARBOR  CLOUDY    31  25  78 NW8       30.41R WCI  23
BIG RAPIDS     CLOUDY    29  23  78 NW9       30.34R WCI  20
COLDWATER      MIX PCPN  32  32 100 NW10      30.33R WCI  24
FREMONT        CLOUDY    30  23  75 N12       30.38R WCI  21
HOLLAND        CLOUDY    31  26  82 N16G22    30.38R WCI  20
GRAND RAPIDS   CLOUDY    32  26  78 NW12      30.36R WCI  23
IONIA          CLOUDY    32  32  97 W7        30.34R WCI  26
KALAMAZOO      CLOUDY    32  28  85 N14       30.35R WCI  22
LUDINGTON      CLOUDY    28  24  84 N9G17     30.40R WCI  20
MARSHALL       MIX PCPN  32  31  98 NW7       30.33R WCI  26
MOUNT PLEASANT CLOUDY    32  28  85 NW7       30.32R WCI  26
MUSKEGON       CLOUDY    31  25  78 NW10      30.39R WCI  22
SOUTH HAVEN    CLOUDY    31  28  87 N12       30.40R WCI  22
$$
MIZ016>042-211400-
NORTHERN LOWER MICHIGAN

CITY           SKY/WX    TMP DP  RH WIND       PRES   REMARKS
ALPENA         FAIR      26  19  74 NW10G22   30.32R WCI  16
BEAVER ISLAND  CLOUDY    22  16  76 NW9       30.39R WCI  12
BELLAIRE       CLOUDY    26  22  86 NW6       30.39R WCI  19
CADILLAC       CLOUDY    26  24  93 NW8       30.32R WCI  17
CHARLEVOIX     CLOUDY    24  19  78 NW9       30.41R WCI  15
FRANKFORT      CLOUDY    27  22  80 NW7       30.40R WCI  20
GAYLORD        CLOUDY    21  20  96 NW9       30.31R WCI  11
GRAYLING       CLOUDY    25  22  89 NW12      30.31R WCI  14
HARBOR SPRINGS CLOUDY    23  17  77 W10       30.37R WCI  12
HOUGHTON LAKE  MOCLDY    26  21  81 NW14      30.31R WCI  14
MANISTEE       CLOUDY    28  22  78 NW8       30.40R WCI  20
OSCODA         CLOUDY    30  27  89 NW10      30.30R WCI  21
PELLSTON       CLOUDY    22  16  78 NW16      30.37R WCI   8
ROGERS CITY    CLOUDY    25  19  80 NW10G16   30.34R WCI  14
TRAVERSE CITY  CLOUDY    27  20  75 NW12      30.38R WCI  17
$$
MIZ007>008-015-211400-
EASTERN UPPER MICHIGAN

CITY           SKY/WX    TMP DP  RH WIND       PRES   REMARKS
KINROSS        FLURRIES  18  14  84 NW9       30.33R WCI   7
MACKINAC ISLAN CLOUDY    20  15  79 NW8G18    30.35R WCI  10
NEWBERRY       FLURRIES  17  15  88 W5        30.35R WCI  10
S. S. MARIE    CLOUDY    18  12  77 NW12      30.33R WCI   5
MUNISING         N/A     19  15  84 W5        30.38R WCI  12
$$
MIZ004>006-011>014-085-211400-
CENTRAL UPPER MICHIGAN

CITY           SKY/WX    TMP DP  RH WIND       PRES   REMARKS
MANISTIQUE     FLURRIES  19  13  79 W8        30.39R WCI   8
ESCANABA       FAIR      15  10  80 W7        30.42R WCI   5
MENOMINEE      FAIR      16  12  84 NW6       30.44R WCI   7
SAWYER-GWINN   FLURRIES  14   9  79 NW5       30.36R WCI   6
$$
MIZ001>003-009>011-084-211400-
WESTERN UPPER MICHIGAN

CITY           SKY/WX    TMP DP  RH WIND       PRES   REMARKS
IRON MOUNTAIN  FAIR      11   5  77 W7        30.37R WCI   0
HOUGHTON       LGT SNOW  14   7  73 W16G24    30.35R WCI  -2
COPPER HARBOR    N/A     16  10  77 VRB3      30.36R
IRONWOOD       FAIR       0  -3  87 W8        30.42R WCI -14
$$

ABBREVIATIONS USED IN REMARKS
   TC - TEMPERATURE IN CELSIUS
  WCI - WIND CHILL INDEX
   HX - HEAT INDEX
  VSB - VISIBILITY




USA.gov is the U.S. government's official web portal to all federal, state and local government web resources and services.